DW8195 Weather Reports


Display with metric or nautical units.
time (UTC)temp
F
wind
direction
speed
MPH
gust
MPH
rain 1hr
in
rain 24hr
in
rain mn
in
humidity
%
barometer
mb
20260504020042 54 203 3.0 6.0 0.00 0.00 0.00 31 1013.1
20260504014536 55 203 3.0 6.0 0.00 0.00 0.00 30 1013.0
20260504013006 55 203 3.0 5.0 0.00 0.00 0.00 28 1012.9
20260504011502 56 203 3.0 5.0 0.00 0.00 0.00 27 1012.7
20260504010031 56 203 4.0 7.0 0.00 0.00 0.00 26 1012.5
20260504004531 56 203 2.0 5.0 0.00 0.00 0.00 27 1012.3
20260504003038 57 203 2.0 4.0 0.00 0.00 0.00 27 1012.1
20260504001530 58 203 1.0 6.0 0.00 0.00 0.00 28 1011.9
20260504000051 58 203 2.0 5.0 0.00 0.00 0.00 26 1011.7
20260503234528 59 203 2.0 8.0 0.00 0.00 0.00 25 1011.6
20260503233025 59 203 3.0 8.0 0.00 0.00 0.00 25 1011.4
20260503231525 59 203 4.0 10.0 0.00 0.00 0.00 22 1011.3
20260503230024 59 203 5.0 13.0 0.00 0.00 0.00 23 1011.3
20260503224524 60 203 2.0 13.0 0.00 0.00 0.00 22 1011.0
20260503223025 60 203 3.0 13.0 0.00 0.00 0.00 25 1011.0
20260503221557 60 203 2.0 12.0 0.00 0.00 0.00 22 1011.0
20260503220052 60 203 5.0 12.0 0.00 0.00 0.00 23 1011.0
20260503214550 60 203 4.0 12.0 0.00 0.00 0.00 23 1011.0
20260503213049 60 203 1.0 10.0 0.00 0.00 0.00 21 1010.9
20260503211556 60 203 4.0 13.0 0.00 0.00 0.00 25 1010.8
20260503210048 60 203 4.0 13.0 0.00 0.00 0.00 24 1010.7
20260503204543 60 322 1.0 9.0 0.00 0.00 0.00 24 1010.7
20260503203100 60 203 1.0 10.0 0.00 0.00 0.00 23 1010.6
20260503201540 59 203 5.0 17.0 0.00 0.00 0.00 24 1010.7
20260503200037 59 203 2.0 14.0 0.00 0.00 0.00 26 1010.8
20260503194537 58 203 3.0 13.0 0.00 0.00 0.00 27 1011.0
20260503193032 58 203 3.0 11.0 0.00 0.00 0.00 27 1011.2
20260503191527 57 333 3.0 17.0 0.00 0.00 0.00 27 1011.3
20260503190033 57 203 2.0 12.0 0.00 0.00 0.00 30 1011.5
20260503184523 56 203 4.0 15.0 0.00 0.00 0.00 29 1011.7
20260503183025 55 203 2.0 10.0 0.00 0.00 0.00 30 1011.8
20260503181520 56 203 5.0 17.0 0.00 0.00 0.00 31 1011.8
20260503180025 55 203 2.0 15.0 0.00 0.00 0.00 31 1011.8
20260503174548 54 203 3.0 9.0 0.00 0.00 0.00 33 1011.9
20260503173055 55 203 4.0 13.0 0.00 0.00 0.00 31 1011.8
20260503171515 54 203 3.0 9.0 0.00 0.00 0.00 32 1012.0
20260503081502 50 33 3.0 13.0 0.00 0.00 0.00 37 1010.1
20260503071601 51 29 1.0 7.0 0.00 0.00 0.00 38 1010.1
20260503060103 53 21 2.0 9.0 0.00 0.00 0.00 36 1010.3
20260503054546 53 203 2.0 11.0 0.00 0.00 0.00 35 1010.5
20260503053013 53 203 0.0 7.0 0.00 0.00 0.00 35 1010.3
20260503051510 54 203 1.0 8.0 0.00 0.00 0.00 34 1010.2
20260503050007 54 28 2.0 10.0 0.00 0.00 0.00 35 1010.7
20260503044513 54 20 0.0 8.0 0.00 0.00 0.00 35 1010.7
20260503043006 54 21 1.0 7.0 0.00 0.00 0.00 34 1010.9
20260503041506 55 203 0.0 8.0 0.00 0.00 0.00 34 1010.8
20260503040003 55 203 2.0 7.0 0.00 0.00 0.00 34 1010.9
20260503034503 55 358 0.0 7.0 0.00 0.00 0.00 32 1010.8
20260503033004 55 203 0.0 8.0 0.00 0.00 0.00 33 1011.0
20260503031502 55 203 1.0 9.0 0.00 0.00 0.00 33 1010.7
20260503030052 56 203 1.0 7.0 0.00 0.00 0.00 34 1010.8
20260503024554 56 203 0.0 7.0 0.00 0.00 0.00 34 1010.9
20260503023100 56 29 0.0 7.0 0.00 0.00 0.00 34 1010.9
20260503021554 56 19 3.0 7.0 0.00 0.00 0.00 36 1010.9